Volver al catálogo

RAWHIDE-2

ActivoCienciaVLEO
NORAD 68632·PAYLOAD·🇺🇸 United States

Lanzado Apr 7, 2026 desde Vandenberg Space Force Base

Loading…

Próximos Pases (próximas 24 horas)

TLE

ActualizadoSource: Space-Track

Época: Sep 14, 2026, 12:50 UTC

1 68632U 26074F   26257.53504757  .00002331  00000-0  10110-3 0  9997
2 68632  60.0303 194.6803 0036348  89.2016 271.3230 15.25542329 24417

Sigue RAWHIDE-2 en tiempo real con AllMySat

Download on the App Store